sat.trackr.live / text

‹ back to catalog

CZ-8A R/B

NORAD 69868 · 2026-155W

ROCKET_BODY UNKNOWN UNKNOWN

§ Identity

Operator
Country
PRC
Launch date
2026-07-05
Launch site
WSC
Launch vehicle
Mass (kg)
RCS (m²)

External: N2YO · Heavens-Above · Gunter

§ Orbital elements

Epoch: 2026-08-03T21:49:59.331936Z

Period
99.43 min
Inclination
88.9643°
Eccentricity
0.0104895
Mean motion
14.48283870 rev/d
Perigee alt
656.7 km
Apogee alt
805.8 km
Semi-major
7,109.4 km
B*
7.8795e-5
RAAN
58.4743°
Arg perigee
38.4678°
Mean anomaly
322.3945°
Rev number
424

§ Raw data

CZ-8A R/B1 69868U 26155W   26215.90971449  .00000333  00000+0  78795-4 0  99932 69868  88.9643  58.4743 0104895  38.4678 322.3945 14.48283870  4244

JSON: /api/v1/satellites/69868 · /tle

For live sub-satellite position, see the globe view (requires WebGL).

§ Visibility from observer

Set your observer location to see the next 7 days of passes ≥ 10°. The values pass through the URL so the page stays shareable.

No JS? Fill the form by hand. The geolocation button needs JavaScript.